RH
17 17 17 17 17 17 16 17 17 16 16 15 15 15 15 14 14 14 14 13 13 13 13 13 12 12 12 12 12 12 13 13 13 14 15 15 16 17 17 17 16 16 15 15 14 14 14 13 12 12 11 11
19 19 19 18 18 18 18 18 18 17 17 16 16 15 15 15 15 15 14 14 13 13 13 12 11 11 11 11 11 11 11 11 12 12 13 14 15 15 16 16 16 16 16 15 15 14 14 13 12 11 11 11
20 20 20 20 19 19 19 18 18 18 17 16 16 16 15 15 16 15 15 15 14 13 13 12 11 11 10 10 10 10 11 11 11 12 12 13 14 15 15 16 16 16 15 15 14 14 13 13 12 11 11 11
21 21 21 21 21 20 19 19 18 18 17 16 16 16 16 16 16 16 16 15 15 14 14 13 11 10 10 10 10 10 10 10 11 12 13 14 15 15 16 16 16 15 14 14 14 13 13 13 12 12 12 12
22 23 23 22 22 21 20 19 18 18 17 16 16 17 17 17 17 17 16 15 15 14 15 14 11 10 10 10 10 10 10 11 12 13 14 15 15 16 17 16 15 15 14 14 13 13 13 13 13 12 12 12
23 24 23 23 22 21 20 20 19 18 18 17 17 17 18 18 18 18 17 16 16 15 16 14 11 11 10 10 10 10 11 12 13 14 15 15 16 17 17 16 15 15 14 14 13 13 13 13 13 12 12 12
24 25 24 23 22 22 21 20 19 19 19 19 19 19 19 19 19 19 18 17 16 15 16 14 12 11 10 11 11 12 12 13 14 15 16 16 17 17 17 16 15 15 14 14 14 13 13 13 12 12 12 12
25 26 25 23 23 23 22 21 20 20 20 20 20 20 19 20 20 20 19 18 17 16 16 15 13 12 11 11 13 14 14 14 16 16 17 17 17 17 17 17 16 16 15 14 14 14 13 13 12 12 12 12
26 26 25 24 24 24 23 23 22 22 21 22 21 21 21 21 21 21 21 20 19 18 18 16 15 13 13 13 14 15 16 16 17 17 17 17 17 17 17 18 18 17 16 15 15 14 14 13 13 12 12 12
26 26 25 25 25 25 24 24 24 23 23 23 23 22 22 22 22 22 22 21 21 20 19 18 17 15 15 15 16 16 18 18 18 18 18 18 18 18 18 19 19 18 17 17 16 15 14 14 14 13 13 13
26 26 26 26 26 25 25 25 25 24 25 24 24 23 23 23 23 23 23 23 22 22 21 20 18 17 17 16 17 18 19 19 19 19 18 18 18 18 19 20 20 19 18 18 17 16 16 15 15 14 14 14
27 26 27 27 26 26 27 27 26 25 25 25 25 24 24 23 23 23 23 23 23 22 21 21 20 18 18 17 18 18 19 20 21 21 20 19 19 19 20 21 21 20 19 19 18 17 17 16 16 15 15 15
28 28 28 27 27 28 28 27 26 26 26 26 26 25 24 23 23 23 23 23 23 22 22 22 20 19 19 18 18 19 20 21 21 22 22 22 21 20 20 21 21 21 21 20 20 19 18 17 16 16 16 15
29 29 29 29 29 30 29 28 27 26 26 26 26 26 25 24 24 24 24 25 24 23 23 23 22 22 21 20 20 20 20 20 21 22 23 24 24 23 22 22 22 22 22 22 21 20 19 18 18 17 17 17
31 31 30 30 31 32 31 29 27 26 26 26 26 26 26 26 26 26 26 26 27 25 25 25 25 25 24 23 22 21 21 20 20 21 22 24 25 25 25 24 24 24 23 23 23 22 21 20 19 19 18 18
32 32 32 33 32 32 32 30 27 26 26 26 26 26 26 26 27 27 28 28 28 27 26 26 26 26 25 26 24 22 21 21 21 21 22 23 24 26 27 26 26 25 25 25 25 24 22 21 20 20 19 19
34 35 35 34 32 32 33 31 28 27 28 28 28 27 27 29 29 30 30 31 30 29 28 28 27 27 27 28 25 23 22 23 23 24 24 24 24 25 27 28 28 28 27 26 26 26 25 23 22 21 21 20
37 37 38 36 34 34 34 32 30 29 30 31 30 31 31 32 33 34 34 35 34 34 33 32 31 30 30 30 27 24 24 25 26 27 28 27 25 26 28 29 29 29 29 29 27 26 26 25 24 23 22 22
39 41 42 40 38 37 35 34 33 32 34 35 34 35 35 36 36 37 38 38 38 38 37 37 36 35 35 34 31 28 27 28 30 31 32 30 29 27 29 31 31 31 31 30 29 28 27 25 24 24 24 25
42 44 44 41 39 37 37 36 36 37 39 39 38 38 38 38 39 40 41 42 43 43 42 41 40 40 40 38 35 32 31 31 32 35 37 36 34 32 31 32 33 33 33 31 30 29 29 28 26 25 26 27
45 45 45 43 40 39 39 38 39 40 41 40 39 40 40 41 42 44 45 46 47 46 45 45 44 44 43 41 38 36 34 34 36 38 40 41 41 38 36 37 38 38 37 34 31 30 30 30 30 29 28 29
44 45 46 45 42 40 39 38 38 38 38 37 37 39 41 43 45 46 48 48 49 49 48 47 46 46 46 44 41 38 36 37 39 41 43 44 44 43 40 41 43 44 43 40 36 33 32 32 33 33 31 31
47 48 48 45 42 39 36 35 34 34 33 33 34 36 38 41 43 46 49 50 51 51 50 49 48 48 48 47 45 42 39 39 41 44 45 45 46 47 46 44 46 48 49 46 42 38 35 34 34 34 33 32
59 54 48 43 38 35 33 32 31 30 31 31 31 32 35 36 38 41 44 46 49 49 49 49 48 47 47 48 46 44 42 44 47 48 48 47 47 50 51 47 47 49 50 49 47 42 38 37 36 36 35 33
54 49 44 38 33 31 30 31 30 30 30 29 29 29 31 33 34 38 41 44 46 48 49 48 47 47 47 47 46 45 44 45 50 53 55 53 51 53 55 53 50 50 50 50 49 44 41 39 38 38 36 34
41 41 41 38 34 32 32 32 31 30 30 29 28 28 29 31 33 36 39 42 45 48 50 49 48 48 48 48 46 45 43 42 46 52 57 59 57 58 59 59 55 52 50 50 50 48 43 41 40 39 37 35
39 39 37 36 35 34 34 34 33 32 31 30 31 30 31 33 34 36 37 39 42 45 47 47 46 47 49 48 45 43 42 39 41 47 54 59 61 62 62 62 62 59 54 52 54 52 47 43 42 40 37 35
38 36 35 34 34 34 34 33 33 32 31 33 34 32 32 33 34 36 36 37 39 40 43 43 43 45 47 47 45 42 40 40 40 46 53 57 61 64 65 65 66 66 63 59 59 57 53 49 46 43 40 38
35 34 34 34 33 33 32 31 31 30 31 32 34 33 32 32 33 35 36 37 38 38 41 43 44 46 46 47 45 40 38 40 43 48 54 58 62 67 70 69 68 70 71 70 67 65 61 56 52 50 48 46
36 35 34 34 33 33 32 32 32 32 32 32 32 33 33 34 34 34 35 36 36 37 39 42 44 45 45 46 45 42 40 41 45 51 55 59 62 67 73 74 71 72 75 75 74 71 67 61 55 53 53 52
43 41 40 39 37 36 36 35 36 37 37 36 36 35 35 37 37 35 35 35 36 37 39 41 43 44 45 46 47 48 46 44 48 54 57 60 62 65 72 75 74 75 78 77 75 74 70 64 58 55 55 55